STARLINK-31208, 59037

Orbit data source: Space-Track

STARLINK-31208, 59037 is a payload satellite owned by SpaceX/Seattle (US) in LEO that was launched on Sun, 25 Feb 2024 UTC via an FALCON 9 launch vehicle from the Air Force Eastern Test Range (AFETR). Payload-class satellites include a variety of spacecraft equipped with specific instruments for various scientific and technological missions. These include communications satellites like Starlink; space stations such as the ISS; scientific satellites like the Hubble; Earth observation satellites from companies like Planet Labs, Umbra, and HawkEye 360; GPS; miniature CubeSats for education and research; and military/defense satellites.

Loading next visibility...
Identifier
59037, 2024-038Q
Orbit
LEO
Country
Flag of USUS
Related business
Manufacturer
SpaceX/Seattle
Mission
Operational Commercial Communications
Bus & Motor
STARLINK V2M, Unknown motor
Mass
730 kg wet, ~700 kg dry
Launch date (UTC)
2024-02-25 (2 years ago)
Launch vehicle
FALCON 9
Launch site
Air Force Eastern Test Range (AFETR)
Object type
Payload
Rocket body
Debris
Shape & HBR
Box + 2 Pan, 17.7 m
Radar Cross Section
33.884 m², Large (>1 m²)

Expand to show TLE details & history
Last TLE update: 1 day ago

TLE from 1 day ago
0 STARLINK-31208
1 59037U 24038Q   25348.50006960  .00002251  00000-0  91294-4 0  9998
2 59037  42.9997 148.5992 0000942 269.6942  90.3802 15.27581540101784
Epoch: 2025-12-14T12:00Z
TLE epoch observation values (Epoch: 2025-12-14T12:00:06.013Z)
Latitude
Longitude
-114.83795°
Altitude
482.824 km
Speed
7.626 km/s
True Right ascension
09h 54m 23s
True Declination
0° 00' 00"
Sunlit
Object was in partial shadow at epoch
Visualization orbit readout
Latitude
Unknown
Longitude
Unknown
Altitude
Unknown
Speed
Unknown
Apparent Right ascension
Unknown
Apparent Declination
Unknown
Sunlit
N/A
Visualization observer readout
Local Sidereal Time
13:26:14
Azimuth
Unknown
Elevation
Unknown
Doppler factor
Unknown
Orbital elements
Apogee altitude
485.636 km
Perigee altitude
484.343 km
Semi-major axis
6,863.127 km
Eccentricity
0.00009
Inclination
42.9997°
RAAN
148.5992°
Arg. of periapsis
269.6942°
True anomaly
90.39099°
Mean anomaly
90.3802°
Eccentric anomaly
90.3856°
Mean motion
3.81733 °/min
Orbital period
94.31 mins
BSTAR
0.000091294
Loading maneuver chart data...
Computing Atmospheric mass density...
Loading historical data...
Loading historical data...
Loading historical data...
Loading historical data...
Loading historical data...
Loading historical data...
Loading historical data...

Documentation

Showing up to 5 results
|